www.pogodaiklimat.ru

Погода и климат >> Архив погоды >> Гана >> Сефви Беквай


ПОГОДА в Сефви Беквай

  • Прогноз погоды в Сефви Беквай
  • Монитор погоды в Сефви Беквай

АРХИВ ПОГОДЫ в Сефви Беквай

Время (UTC), дата Ветер
(напр.,м/с)
 
Видим.   Явления Облачность Т
(С)
Тd
(С)
f
(%)
Тe
(С)
Тes
(С)
Комфортность P
(гПа)
Po
(гПа)
Тmin
(С)
Tmax
(С)
R
(мм)
R24
(мм)
S
(см)
06 13.02 ЮЗ 1 8000 м дымка 4/0
[Ci sp]
+22.0 +18.3 80 +27 +27 душно 1012.2 992.2 +21.2
09 13.02 штиль 0 8000 м дымка ясно +24.4 +21.0 81 +31 +43 очень
душно
1014.0 994.2
12 13.02 ЮЗ 1 8000 м мгла ясно +32.0 +21.5 54 +40 +63 опасность
солнечного
удара
1012.2 992.9
15 13.02 ЮЗ 1 8000 м мгла ясно +34.6 +22.2 49 +44 +56 опасность
перегрева
1008.6 989.5
18 13.02 штиль 0 8000 м мгла 9/0
[Cs]
+32.2 +21.1 52 +40 +40 очень
душно
1009.7 990.4
21 13.02 штиль 0 8000 м мгла ясно +28.5 +21.1 64 +36 +36 очень
душно
1012.2 992.7
00 14.02 штиль 0 8000 м дымка 6/6 330 м
[Sc]
+27.4 +24.1 82 +38 +38 очень
душно
1013.6 994.0
03 14.02 штиль 0 6000 м дымка 9/9 330 м
[Sc]
+27.5 +25.1 87 +40 +40 очень
душно
1012.5 992.9
06 14.02 штиль 0 8000 м дымка 9/9 330 м
[Sc]
+26.3 +24.5 90 +37 +37 очень
душно
1013.3 993.6 +24.4
09 14.02 ЮЗ 2 8000 м дымка 9/9 330 м
[Sc]
+27.5 +25.2 87
12 14.02 Ю 1 12 км 5/5 480 м
[Cu med, cong]
+32.5 +25.2 65 +46 +58 опасность
перегрева
1013.4 994.1
15 14.02 ЮЗ 2 14 км 3/3 480 м
[Cu med, cong]
+35.0 +23.6 52 +46 +54 опасность
перегрева
1009.3 990.2
18 14.02 З 1 13 км ясно +33.0 +22.8 55 +43 +43 опасность
перегрева
1010.0 990.8 +35.0
21 14.02 ЮЗ 1 12 км 4/0
[Ci sp]
+30.0 +23.6 69 +41 +41 опасность
перегрева
1013.3 993.8
00 15.02 ЮЗ 1 12 км 8/0
[Cs]
+28.5 +25.6 84 +42 +42 опасность
перегрева
1014.0 994.4
03 15.02 штиль 0 12 км 9/9 330 м
[Sc]
+27.6 +25.7 89 +41 +41 опасность
перегрева
1012.9 993.3
09 15.02 В 1 10 км 4/4 360 м
[Cu Sc]
+29.0 +18.9 54 +34 +40 очень
душно
1015.6 996.0
12 15.02 СВ 2 10 км 5/5 480 м
[Cu med, cong]
+34.0 +25.7 62 +49 +59 опасность
перегрева
1012.9 993.7
15 15.02 СЗ 1 12 км 1/1 480 м
[Cu med, cong]
+36.2 +19.5 38 +42 +53 опасность
перегрева
1009.3 990.3
18 15.02 штиль 0 12 км 1/0
[Ac trans]
+34.5 +23.4 53 +45 +45 опасность
перегрева
1009.5 990.4 +36.4
00 16.02 ЮЗ 1 12 км 9/9 330 м
[Sc]
+28.8 +25.7 83 +43 +43 опасность
перегрева
1013.4 993.9
03 16.02 штиль 0 12 км 8/8 330 м
[Sc]
+28.0 +26.0 89 +42 +42 опасность
перегрева
1011.7 992.1
06 16.02 штиль 0 12 км 6/5 330 м
[Sc Ci sp]
+27.0 +25.8 93 +40 +40 очень
душно
1012.3 992.7 +27.0
12 16.02 СЗ 1 12 км 4/4 450 м
[Cu med, cong]
+34.0 +22.7 52 +44 +58 опасность
перегрева
1012.1 992.9
15 16.02 В 2 12 км 6/1 480 м
[Cu med, cong Cs]
+37.2 +22.2 42 +46 +55 опасность
перегрева
1008.1 989.2
18 16.02 штиль 0 10 км 5/0
[Ci sp]
+34.6 +22.0 48 +43 +43 опасность
перегрева
1008.4 989.3 +37.0
21 16.02 штиль 0 10 км ясно +30.2 +24.9 73 +43 +43 опасность
перегрева
1012.1 992.7
00 17.02 штиль 0 10 км 9/9 330 м
[Sc]
+28.8 +25.5 82 +42 +42 опасность
перегрева
1013.3 993.8
03 17.02 СВ 2 10 км 9/9 330 м
[Sc]
+28.0 +26.0 89 +42 +42 опасность
перегрева
1012.1 992.5
06 17.02 штиль 0 3000 м 6/6 330 м
[Sc]
+27.4 +26.5 95 +42 +42 опасность
перегрева
1012.4 992.8 +27.0
09 17.02 штиль 0 12 км 8/8 330 м
[Cu Sc]
+29.6 +26.3 82 +45 +47 опасность
перегрева
1013.8 994.3
15 17.02 ЮЗ 2 13 км 5/5 480 м
[Cu med, cong]
+36.0 +22.7 46 +45 +51 опасность
перегрева
1007.7 988.7
18 17.02 В 2 12 км 5/1 450 м
[Cu med, cong Ci sp]
+34.5 +23.8 54 +46 +46 опасность
перегрева
1008.4 989.3 +36.0
03 18.02 штиль 0 10 км 8/8 330 м
[Sc]
+28.0 +26.1 89 +42 +42 опасность
перегрева
1010.4 990.9
06 18.02 штиль 0 10 км 9/9 330 м
[Sc]
+23.5 +26.2 100 +32 +32 очень
душно
1011.3 991.5 +27.0
09 18.02 штиль 0 8000 м дымка 8/8 330 м
[Cu Sc]
+29.4 +26.2 83 +45 +47 опасность
перегрева
1013.6 994.1
12 18.02 ЮВ 2 12 км 6/6 450 м
[Cu med, cong]
+32.6 +25.0 64 +46 +55 опасность
перегрева
1011.2 991.9
18 18.02 штиль 0 12 км 9/0
[Ci sp]
+32.0 +25.9 70 +47 +47 опасность
перегрева
1007.5 988.3 +34.7
00 19.02 ЮЗ 1 10 км {гроза} 9/5 330 м
[Sc Ac trans]
+24.5 +20.7 79 +30 +30 очень
душно
1011.0 991.2
09 19.02 В 1 12 км 1/0
[Ac trans]
+26.1 +22.1 79 +34 +44 очень
душно
1011.8 992.1
12 19.02 ЮЗ 3 14 км 3/3 450 м
[Cu med, cong]
+34.5 +23.1 52 +45 +57 опасность
перегрева
1009.2 990.1
18 19.02 ЮЗ 1 5000 м дымка 9/9
[Sc diur, vesp Ac cuf Ci sp]
+31.4 +24.0 65 +43 +43 опасность
перегрева
1007.3 988.0
21 19.02 ЮЗ 1 12 км 9/0 600 м
[Ac trans]
+29.0 +24.7 78 +41 +41 опасность
перегрева
1009.3 989.9
00 20.02 ЮЗ 1 12 км 9/4 330 м
[Sc Ac trans]
+26.5 +22.3 78 +35 +35 очень
душно
1011.3 991.7
03 20.02 штиль 0 50 км ?/? +25.1 +21.9 82 +32 +32 очень
душно
1010.0 990.3 550

 

Местоположение метеостанции Сефви Беквай (Гана): широта 6.20 долгота -2.33 высота над уровнем моря 172 м.

В архиве по умолчанию представлена погода в Сефви Беквай за последнюю неделю. Архивные данные за месяц целиком и за предыдущие месяцы, начиная с января 2011 года, Вы можете получить, выбрав интересующий диапазон дат из раскрывающегося списка и нажав кнопку "Ввод!".


*Определитесь, кто Вы:
робот инопланетянин человек

Внимание! Время в таблицах - всемирное. Для получения местного времени необходимо прибавить поправку, которая равна 1 ч.

Смотрите также архив погоды в соседних городах и на ближайших метеорологических станциях:

Погода в Кумаси (Гана) (99 км)
Погода в Суняни (Гана) (126 км)
Погода в Адиаке (Кот-д'Ивуар) (147 км)
Погода в Аксиме (Гана) (148 км)
Погода в Аким Ода (Гана) (152 км)
Погода Такоради (Гана) (159 км)
Погода в Уэнчи (Гана) (174 км)
Погода в Солтпонде (Гана) (178 км)
Погода в Абетифи (Гана) (182 км)
Погода в Абиджане (Кот-д'Ивуар) (206 км)

Пояснения к столбцам:

Ветер - указаны скорость ветра в м/с - средняя за 10 мин, порывы в срок и между сроками (в фигурных скобках) и направление, откуда дует ветер: С - северный, СВ - северо-восточный, В - восточный, ЮВ - юго-восточный, Ю - южный, ЮЗ - юго-западный, З - западный, СЗ - северо-западный.
Видимость - горизонтальная дальность видимости в метрах или километрах. При видимости от 1 до 10 км при отсутствии осадков обычно наблюдается дымка, при ухудшении видимости до 1 км и менее - туман. В сухую погоду видимость может ухудшаться дымом, пылью или мглою.
Явления - указаны атмосферные явления, наблюдавшиеся в срок или в последний час перед сроком; фигурными скобками обозначены явления, наблюдавшиеся между сроками (за 1-3 часа до срока); квадратными скобками обозначены град или гололедные отложения с указанием их диаметра в мм.
Облачность - указаны через наклонную черту общая и нижняя облачность в баллах и высота нижней границы облаков в метрах; квадратными скобками обозначены формы облаков: Ci - перистые, Cs - перисто-слоистые, Cc - перисто-кучевые, Ac - высококучевые, As - высокослоистые, Sc - слоисто-кучевые, Ns - слоисто-дождевые, Cu - кучевые, Cb - кучево-дождевые. Подробнее классификацию облаков см. в Атласе облаков (PDF).
T - Температура воздуха - температура, измеренная на высоте 2 м над землей.
Td - Температура точки росы - температура, при понижении до которой содержащийся в воздухе водяной пар достигнет насыщения.
f - Относительная влажность воздуха - влажноcть воздуха, измеренная на высоте 2 м над землей.
Te - Эффективная температура - температура, которую ощущает одетый по сезону человек в тени. Характеристика душности погоды. При расчете учитывается влияние влажности воздуха и скорости ветра на теплоощущения человека.
Tes - Эффективная температура на солнце - температура, которую ощущает человек, с поправкой на солнечный нагрев. Характеристика знойности погоды. Зависит от высоты солнца над горизонтом, облачности и скорости ветра. Ночью, в пасмурную погоду, а также при ветре 12 м/с и более поправка равна нулю.
P - Атмосферное давление - приведенное к уровню моря атмосферное давление.
Po - Атмосферное давление - измеренное на уровне метеостанции атмосферное давление.
Tmin - Минимальная температура - минимум температуры воздуха на высоте 2 м над землей.
Tmax - Максимальная температура - максимум температуры воздуха на высоте 2 м над землей.
R - Количество осадков - Количество выпавших осадков за период времени, мм. При наведении курсора мыши на число - период времени, за который выпало указанное количество осадков.
R24 - Количество осадков - Количество выпавших осадков за 24 часа, мм.
S - Снежный покров - Высота снежного покрова, см. При наведении курсора мыши на число - состояние снежного покрова и степень покрытия местности в баллах.